Regional Weather Roundup
Issued by NWS

Home | Current Version | Previous Version | Graphics & Text | Print | Product List | Glossary On
Versions: 1 2 3 4 5 6 7 8 9 10 11 12 13 14 15 16 17 18 19 20 21 22 23 24 25 26 27 28 29 30 31 32 33 34 35 36 37 38 39 40 41 42 43 44 45 46 47 48 49 50
000
ASUS43 KBIS 222220
RWRND

NORTH DAKOTA REGIONAL WEATHER ROUNDUP
NATIONAL WEATHER SERVICE BISMARCK ND
500 PM CDT TUE APR 22 2014

NOTE: "FAIR" INDICATES FEW OR NO CLOUDS BELOW 12,000 FEET WITH NO
SIGNIFICANT WEATHER AND/OR OBSTRUCTIONS TO VISIBILITY.


NDZ001>003-009>011-017-222300-
NORTHWEST NORTH DAKOTA

CITY           SKY/WX    TMP DP  RH WIND       PRES   REMARKS
WILLISTON      PTSUNNY   69  28  21 SE22G32   29.72F
MINOT          MOSUNNY   68  29  23 E18G29    29.83F
MINOT AFB      MOSUNNY   67  32  27 SE22G29   29.83F
$$

NDZ018>021-031>035-040>046-222300-
SOUTHWEST NORTH DAKOTA

CITY           SKY/WX    TMP DP  RH WIND       PRES   REMARKS
BISMARCK       SUNNY     70  30  22 SE22      29.84F
DICKINSON      MOSUNNY   70  30  22 SE28G38   29.72F
GARRISON         N/A     69  31  24 SE23G30   29.80F
HETTINGER ARPT CLOUDY    64  31  28 SE20G32   29.73F
$$

NDZ004>008-012>016-024-026-027-054-222300-
NORTHEAST NORTH DAKOTA

CITY           SKY/WX    TMP DP  RH WIND       PRES   REMARKS
GRAND FORKS    MOSUNNY   62  32  32 SE7       30.00F
GRND FRKS AFB  SUNNY     61  30  30 SE9       30.00F
DEVILS LAKE    SUNNY     61  28  29 SE14      29.94F
$$

NDZ022-023-025-028>030-036>039-047>053-222300-
SOUTHEAST NORTH DAKOTA

CITY           SKY/WX    TMP DP  RH WIND       PRES   REMARKS
FARGO          SUNNY     62  34  35 S12       30.00F
JAMESTOWN      MOSUNNY   65  33  30 SE18G29   29.92F
$$




USA.gov is the U.S. government's official web portal to all federal, state and local government web resources and services.